Time,TemperatureF,DewpointF,PressureIn,WindDirection,WindDirectionDegrees,WindSpeedMPH,WindSpeedGustMPH,Humidity,HourlyPrecipIn,Conditions,Clouds,dailyrainin,SoftwareType,DateUTC
2013-07-02 00:01:00,74.2,71.0,30.07,WNW,282,2.0,5.0,90,0.00,,,0.00,weatherlink.com 1.10,2013-07-02 04:01:00,
2013-07-02 00:16:00,74.2,71.0,30.08,WSW,257,1.0,5.0,90,0.00,,,0.00,weatherlink.com 1.10,2013-07-02 04:16:00,
2013-07-02 00:31:00,74.1,71.0,30.07,WNW,285,0.0,7.0,90,0.00,,,0.00,weatherlink.com 1.10,2013-07-02 04:31:00,
2013-07-02 00:46:00,74.0,71.0,30.07,WSW,256,0.0,4.0,90,0.00,,,0.00,weatherlink.com 1.10,2013-07-02 04:46:00,
2013-07-02 01:01:00,73.9,71.0,30.07,South,191,2.0,5.0,91,0.00,,,0.00,weatherlink.com 1.10,2013-07-02 05:01:00,
2013-07-02 01:16:00,73.9,71.0,30.07,SSW,195,2.0,4.0,91,0.00,,,0.00,weatherlink.com 1.10,2013-07-02 05:16:00,
2013-07-02 01:31:00,74.0,71.0,30.07,West,269,1.0,6.0,91,0.00,,,0.00,weatherlink.com 1.10,2013-07-02 05:31:00,
2013-07-02 01:46:00,74.1,71.0,30.07,NNW,332,1.0,6.0,91,0.00,,,0.00,weatherlink.com 1.10,2013-07-02 05:46:00,
2013-07-02 02:01:00,74.1,71.0,30.08,SE,142,6.0,6.0,91,0.00,,,0.00,weatherlink.com 1.10,2013-07-02 06:01:00,
2013-07-02 02:16:00,74.2,71.0,30.08,WSW,246,2.0,5.0,90,0.00,,,0.00,weatherlink.com 1.10,2013-07-02 06:16:00,
2013-07-02 02:31:00,74.4,71.0,30.08,SW,236,2.0,6.0,90,0.00,,,0.00,weatherlink.com 1.10,2013-07-02 06:31:00,
2013-07-02 02:46:00,74.4,71.0,30.08,SW,236,2.0,7.0,90,0.00,,,0.00,weatherlink.com 1.10,2013-07-02 06:46:00,
2013-07-02 03:01:00,74.3,71.0,30.08,SSW,209,1.0,6.0,90,0.00,,,0.00,weatherlink.com 1.10,2013-07-02 07:01:00,
2013-07-02 03:16:00,74.4,71.0,30.08,West,274,2.0,6.0,90,0.00,,,0.00,weatherlink.com 1.10,2013-07-02 07:16:00,
2013-07-02 03:31:00,74.4,71.0,30.08,SW,217,2.0,6.0,89,0.00,,,0.00,weatherlink.com 1.10,2013-07-02 07:31:00,
2013-07-02 03:46:00,74.4,71.0,30.08,SW,233,0.0,5.0,89,0.00,,,0.00,weatherlink.com 1.10,2013-07-02 07:46:00,
2013-07-02 04:01:00,74.5,72.0,30.09,WSW,256,1.0,6.0,90,0.00,,,0.00,weatherlink.com 1.10,2013-07-02 08:01:00,
2013-07-02 04:16:00,74.4,71.0,30.09,SSW,203,3.0,5.0,90,0.00,,,0.00,weatherlink.com 1.10,2013-07-02 08:16:00,
2013-07-02 04:31:00,74.2,71.0,30.09,SSW,208,1.0,4.0,90,0.00,,,0.00,weatherlink.com 1.10,2013-07-02 08:31:00,
2013-07-02 04:46:00,74.2,71.0,30.09,WSW,245,0.0,4.0,90,0.00,,,0.00,weatherlink.com 1.10,2013-07-02 08:46:00,
2013-07-02 05:01:00,74.1,71.0,30.09,SSW,198,0.0,3.0,91,0.00,,,0.00,weatherlink.com 1.10,2013-07-02 09:01:00,
2013-07-02 05:16:00,74.1,71.0,30.10,West,280,1.0,5.0,91,0.00,,,0.00,weatherlink.com 1.10,2013-07-02 09:16:00,
2013-07-02 05:31:00,74.2,72.0,30.11,WSW,238,4.0,5.0,91,0.00,,,0.00,weatherlink.com 1.10,2013-07-02 09:31:00,
2013-07-02 05:46:00,74.4,72.0,30.11,SSW,194,0.0,3.0,91,0.00,,,0.00,weatherlink.com 1.10,2013-07-02 09:46:00,
2013-07-02 06:01:00,74.4,72.0,30.11,SW,233,4.0,5.0,91,0.00,,,0.00,weatherlink.com 1.10,2013-07-02 10:01:00,
2013-07-02 06:16:00,74.5,72.0,30.10,West,268,1.0,4.0,91,0.00,,,0.00,weatherlink.com 1.10,2013-07-02 10:16:00,
2013-07-02 06:31:00,74.6,72.0,30.11,South,186,1.0,7.0,91,0.00,,,0.00,weatherlink.com 1.10,2013-07-02 10:31:00,
2013-07-02 06:46:00,74.6,72.0,30.12,SW,225,1.0,6.0,91,0.00,,,0.00,weatherlink.com 1.10,2013-07-02 10:46:00,
2013-07-02 07:01:00,74.8,72.0,30.12,SSW,201,3.0,6.0,91,0.00,,,0.00,weatherlink.com 1.10,2013-07-02 11:01:00,
2013-07-02 07:16:00,75.0,72.0,30.13,South,179,2.0,5.0,90,0.00,,,0.00,weatherlink.com 1.10,2013-07-02 11:16:00,
2013-07-02 07:31:00,75.2,72.0,30.13,WSW,248,3.0,6.0,90,0.00,,,0.00,weatherlink.com 1.10,2013-07-02 11:31:00,
2013-07-02 07:46:00,75.3,72.0,30.13,South,173,2.0,7.0,90,0.00,,,0.00,weatherlink.com 1.10,2013-07-02 11:46:00,
2013-07-02 08:01:00,75.5,73.0,30.13,WNW,289,1.0,5.0,90,0.00,,,0.00,weatherlink.com 1.10,2013-07-02 12:01:00,
2013-07-02 08:16:00,76.0,72.0,30.13,SW,226,2.0,6.0,88,0.00,,,0.00,weatherlink.com 1.10,2013-07-02 12:16:00,
2013-07-02 08:31:00,76.3,72.0,30.13,SW,221,2.0,6.0,87,0.00,,,0.00,weatherlink.com 1.10,2013-07-02 12:31:00,
2013-07-02 08:46:00,76.6,73.0,30.13,SW,223,2.0,4.0,87,0.00,,,0.00,weatherlink.com 1.10,2013-07-02 12:46:00,
2013-07-02 09:01:00,77.3,73.0,30.13,WSW,243,2.0,4.0,86,0.00,,,0.00,weatherlink.com 1.10,2013-07-02 13:01:00,
2013-07-02 09:15:00,78.0,73.0,30.13,SW,214,2.0,6.0,83,0.00,,,0.00,weatherlink.com 1.10,2013-07-02 13:15:00,
2013-07-02 09:31:00,78.6,73.0,30.13,SE,124,2.0,6.0,83,0.00,,,0.00,weatherlink.com 1.10,2013-07-02 13:31:00,
2013-07-02 09:46:00,79.1,73.0,30.13,West,272,1.0,4.0,81,0.00,,,0.00,weatherlink.com 1.10,2013-07-02 13:46:00,
2013-07-02 10:01:00,79.2,73.0,30.13,WSW,248,1.0,12.0,82,0.00,,,0.00,weatherlink.com 1.10,2013-07-02 14:01:00,
2013-07-02 10:17:00,80.5,73.0,30.12,SSE,161,4.0,9.0,78,0.00,,,0.00,weatherlink.com 1.10,2013-07-02 14:17:00,
2013-07-02 10:32:00,80.4,73.0,30.13,South,184,3.0,10.0,78,0.00,,,0.00,weatherlink.com 1.10,2013-07-02 14:32:00,
2013-07-02 10:47:00,80.3,73.0,30.13,SSE,165,2.0,7.0,79,0.00,,,0.00,weatherlink.com 1.10,2013-07-02 14:47:00,
2013-07-02 11:02:00,80.3,73.0,30.13,SW,235,2.0,7.0,79,0.00,,,0.00,weatherlink.com 1.10,2013-07-02 15:02:00,
2013-07-02 11:17:00,81.5,73.0,30.13,SSW,200,1.0,7.0,76,0.00,,,0.00,weatherlink.com 1.10,2013-07-02 15:17:00,
2013-07-02 11:32:00,81.6,73.0,30.14,WSW,257,4.0,6.0,76,0.00,,,0.00,weatherlink.com 1.10,2013-07-02 15:32:00,
2013-07-02 11:47:00,82.1,74.0,30.14,WSW,240,5.0,7.0,76,0.00,,,0.00,weatherlink.com 1.10,2013-07-02 15:47:00,
2013-07-02 12:02:00,82.1,74.0,30.14,ENE,77,5.0,9.0,75,0.00,,,0.00,weatherlink.com 1.10,2013-07-02 16:02:00,
2013-07-02 12:17:00,81.2,73.0,30.14,SW,236,1.0,8.0,76,0.00,,,0.00,weatherlink.com 1.10,2013-07-02 16:17:00,
2013-07-02 12:32:00,81.6,74.0,30.14,WSW,245,0.0,9.0,77,0.00,,,0.00,weatherlink.com 1.10,2013-07-02 16:32:00,
2013-07-02 12:47:00,81.4,74.0,30.14,WNW,286,1.0,7.0,78,0.00,,,0.00,weatherlink.com 1.10,2013-07-02 16:47:00,
2013-07-02 13:02:00,81.0,74.0,30.14,SW,221,4.0,6.0,79,0.00,,,0.00,weatherlink.com 1.10,2013-07-02 17:02:00,
2013-07-02 13:17:00,81.6,74.0,30.14,WNW,295,2.0,7.0,77,0.00,,,0.00,weatherlink.com 1.10,2013-07-02 17:17:00,
2013-07-02 13:31:00,81.6,74.0,30.14,WSW,249,2.0,8.0,77,0.00,,,0.00,weatherlink.com 1.10,2013-07-02 17:31:00,
2013-07-02 13:47:00,82.2,74.0,30.14,NW,304,3.0,7.0,75,0.00,,,0.00,weatherlink.com 1.10,2013-07-02 17:47:00,
2013-07-02 14:02:00,81.8,73.0,30.14,West,269,3.0,8.0,74,0.00,,,0.00,weatherlink.com 1.10,2013-07-02 18:02:00,
2013-07-02 14:17:00,82.3,73.0,30.14,WSW,242,2.0,9.0,74,0.00,,,0.00,weatherlink.com 1.10,2013-07-02 18:17:00,
2013-07-02 14:32:00,82.5,73.0,30.14,WSW,258,2.0,8.0,73,0.00,,,0.00,weatherlink.com 1.10,2013-07-02 18:32:00,
2013-07-02 14:47:00,84.9,75.0,30.13,West,278,1.0,7.0,71,0.00,,,0.00,weatherlink.com 1.10,2013-07-02 18:47:00,
2013-07-02 15:02:00,85.4,73.0,30.13,NW,311,3.0,7.0,67,0.00,,,0.00,weatherlink.com 1.10,2013-07-02 19:02:00,
2013-07-02 15:17:00,84.6,73.0,30.13,WNW,285,3.0,8.0,68,0.00,,,0.00,weatherlink.com 1.10,2013-07-02 19:17:00,
2013-07-02 15:32:00,84.8,74.0,30.12,SW,236,5.0,9.0,69,0.00,,,0.00,weatherlink.com 1.10,2013-07-02 19:32:00,
2013-07-02 15:47:00,84.3,74.0,30.12,ESE,121,5.0,7.0,70,0.00,,,0.00,weatherlink.com 1.10,2013-07-02 19:47:00,
2013-07-02 16:02:00,85.6,73.0,30.12,SE,137,1.0,5.0,67,0.00,,,0.00,weatherlink.com 1.10,2013-07-02 20:02:00,
2013-07-02 16:17:00,84.6,72.0,30.12,West,265,4.0,11.0,67,0.00,,,0.00,weatherlink.com 1.10,2013-07-02 20:17:00,
2013-07-02 16:32:00,84.7,73.0,30.11,West,274,1.0,4.0,69,0.00,,,0.00,weatherlink.com 1.10,2013-07-02 20:32:00,
2013-07-02 16:47:00,81.6,70.0,30.12,SE,146,1.0,7.0,67,0.00,,,0.00,weatherlink.com 1.10,2013-07-02 20:47:00,
2013-07-02 17:02:00,78.1,69.0,30.12,ESE,119,1.0,5.0,73,0.00,,,0.00,weatherlink.com 1.10,2013-07-02 21:02:00,
2013-07-02 17:17:00,77.9,69.0,30.13,ESE,114,1.0,3.0,73,0.00,,,0.00,weatherlink.com 1.10,2013-07-02 21:17:00,
2013-07-02 17:32:00,77.2,68.0,30.13,SE,124,5.0,6.0,73,0.00,,,0.00,weatherlink.com 1.10,2013-07-02 21:32:00,
2013-07-02 17:47:00,76.8,68.0,30.14,East,83,1.0,4.0,73,0.00,,,0.00,weatherlink.com 1.10,2013-07-02 21:47:00,
2013-07-02 18:02:00,74.8,66.0,30.15,ESE,113,2.0,6.0,75,0.00,,,0.00,weatherlink.com 1.10,2013-07-02 22:02:00,
2013-07-02 18:17:00,73.7,66.0,30.15,ESE,119,2.0,4.0,78,0.00,,,0.00,weatherlink.com 1.10,2013-07-02 22:17:00,
2013-07-02 18:32:00,72.6,66.0,30.16,NE,35,0.0,3.0,79,0.00,,,0.00,weatherlink.com 1.10,2013-07-02 22:32:00,
2013-07-02 18:47:00,72.2,65.0,30.16,SSE,152,0.0,2.0,79,0.00,,,0.00,weatherlink.com 1.10,2013-07-02 22:47:00,
2013-07-02 19:02:00,70.8,65.0,30.16,ESE,105,0.0,4.0,81,0.00,,,0.00,weatherlink.com 1.10,2013-07-02 23:02:00,
2013-07-02 19:17:00,70.2,65.0,30.17,SW,226,2.0,4.0,82,0.00,,,0.00,weatherlink.com 1.10,2013-07-02 23:17:00,
2013-07-02 19:32:00,69.4,64.0,30.17,NE,52,2.0,3.0,84,0.00,,,0.00,weatherlink.com 1.10,2013-07-02 23:32:00,
2013-07-02 19:47:00,68.5,64.0,30.17,ENE,68,1.0,2.0,85,0.00,,,0.00,weatherlink.com 1.10,2013-07-02 23:47:00,
2013-07-02 20:02:00,67.8,64.0,30.17,North,11,2.0,3.0,86,0.00,,,0.00,weatherlink.com 1.10,2013-07-03 00:02:00,
2013-07-02 20:17:00,67.3,63.0,30.17,ESE,117,0.0,3.0,87,0.00,,,0.00,weatherlink.com 1.10,2013-07-03 00:17:00,
2013-07-02 20:33:00,66.9,63.0,30.17,SE,128,0.0,3.0,87,0.00,,,0.00,weatherlink.com 1.10,2013-07-03 00:33:00,
2013-07-02 20:48:00,66.6,63.0,30.18,ENE,69,0.0,2.0,87,0.00,,,0.00,weatherlink.com 1.10,2013-07-03 00:48:00,
2013-07-02 21:03:00,65.9,62.0,30.19,South,175,0.0,2.0,88,0.00,,,0.00,weatherlink.com 1.10,2013-07-03 01:03:00,
2013-07-02 21:18:00,65.6,62.0,30.19,SE,132,0.0,3.0,88,0.00,,,0.00,weatherlink.com 1.10,2013-07-03 01:18:00,
2013-07-02 21:33:00,65.3,62.0,30.19,SE,134,1.0,3.0,89,0.00,,,0.00,weatherlink.com 1.10,2013-07-03 01:33:00,
2013-07-02 21:48:00,65.5,62.0,30.20,NE,34,0.0,3.0,88,0.00,,,0.00,weatherlink.com 1.10,2013-07-03 01:48:00,
2013-07-02 22:03:00,65.3,62.0,30.20,East,96,0.0,2.0,88,0.00,,,0.00,weatherlink.com 1.10,2013-07-03 02:03:00,
2013-07-02 22:18:00,65.1,62.0,30.20,ENE,57,1.0,2.0,89,0.00,,,0.00,weatherlink.com 1.10,2013-07-03 02:18:00,
2013-07-02 22:33:00,65.3,62.0,30.20,North,7,0.0,1.0,89,0.00,,,0.00,weatherlink.com 1.10,2013-07-03 02:33:00,
2013-07-02 23:03:00,65.2,62.0,30.19,NNE,18,0.0,2.0,88,0.00,,,0.00,weatherlink.com 1.10,2013-07-03 03:03:00,
2013-07-02 23:18:00,64.7,61.0,30.19,NNE,25,0.0,2.0,88,0.00,,,0.00,weatherlink.com 1.10,2013-07-03 03:18:00,
2013-07-02 23:33:00,64.4,61.0,30.19,NW,326,1.0,1.0,89,0.00,,,0.00,weatherlink.com 1.10,2013-07-03 03:33:00,
2013-07-02 23:48:00,64.3,61.0,30.19,NNE,15,0.0,1.0,89,0.00,,,0.00,weatherlink.com 1.10,2013-07-03 03:48:00,